When you browse on this site, cookies collect data to enhance your experience and personalize the content and advertising you see.
Visit our Privacy Policy to learn more. By continuing to use the site, you agree to this use of cookies and data.
  • en France
  • Liste des pays
  • À 7 jours
  • Température de l'eau
  • Carte météo
  • Widgets météo
  • user-avatar
    Se connecter

    Météo par heure à Ali Bayramli

    Ce jour, 21 Août, Mercredi

    Heure Température Précipitation Vent Pression Humidité
    00:00 +25°C° 0 mm 1 m/s 759 mmHg 50%
    01:00 +25°C° 0 mm 1 m/s 759 mmHg 49%
    02:00 +25°C° 0 mm 1 m/s 759 mmHg 49%
    03:00 +25°C° 0 mm 2 m/s 759 mmHg 48%
    04:00 +25°C° 0 mm 1 m/s 759 mmHg 46%
    05:00 +26°C° 0 mm 1 m/s 759 mmHg 45%
    06:00 +24°C° 0 mm 0 m/s 759 mmHg 44%
    07:00 +27°C° 0 mm 0 m/s 759 mmHg 36%
    08:00 +30°C° 0 mm 0 m/s 759 mmHg 29%
    09:00 +32°C° 0 mm 0 m/s 759 mmHg 21%
    10:00 +36°C° 0 mm 1 m/s 759 mmHg 18%
    11:00 +38°C° 0 mm 2 m/s 758 mmHg 16%
    12:00 +40°C° 0 mm 2 m/s 758 mmHg 13%
    13:00 +41°C° 0 mm 4 m/s 758 mmHg 13%
    14:00 +41°C° 0 mm 5 m/s 757 mmHg 13%
    15:00 +41°C° 0 mm 7 m/s 757 mmHg 13%
    16:00 +39°C° 0 mm 6 m/s 757 mmHg 19%
    17:00 +36°C° 0 mm 6 m/s 757 mmHg 25%
    18:00 +34°C° 0 mm 5 m/s 756 mmHg 31%
    19:00 +32°C° 0 mm 4 m/s 756 mmHg 38%
    20:00 +29°C° 0 mm 3 m/s 757 mmHg 46%
    21:00 +27°C° 0 mm 2 m/s 757 mmHg 53%
    22:00 +27°C° 0 mm 2 m/s 757 mmHg 54%
    23:00 +26°C° 0 mm 2 m/s 756 mmHg 55%

    Demain, 22 Août, Jeudi

    Heure Température Précipitation Vent Pression Humidité
    00:00 +25°C° 0 mm 1 m/s 756 mmHg 56%
    01:00 +25°C° 0 mm 2 m/s 756 mmHg 53%
    02:00 +25°C° 0 mm 2 m/s 756 mmHg 51%
    03:00 +25°C° 0 mm 2 m/s 756 mmHg 48%
    04:00 +26°C° 0 mm 2 m/s 756 mmHg 47%
    05:00 +26°C° 0 mm 1 m/s 756 mmHg 45%
    06:00 +26°C° 0 mm 1 m/s 756 mmHg 43%
    07:00 +29°C° 0 mm 1 m/s 756 mmHg 36%
    08:00 +32°C° 0 mm 1 m/s 756 mmHg 29%
    09:00 +32°C° 0 mm 0 m/s 756 mmHg 22%
    10:00 +37°C° 0 mm 2 m/s 756 mmHg 20%
    11:00 +39°C° 0 mm 3 m/s 756 mmHg 17%
    12:00 +41°C° 0 mm 4 m/s 755 mmHg 15%
    13:00 +41°C° 0 mm 5 m/s 755 mmHg 15%
    14:00 +41°C° 0 mm 6 m/s 755 mmHg 15%
    15:00 +41°C° 0 mm 6 m/s 754 mmHg 15%
    16:00 +40°C° 0 mm 6 m/s 755 mmHg 17%
    17:00 +37°C° 0 mm 5 m/s 755 mmHg 20%
    18:00 +35°C° 0 mm 5 m/s 755 mmHg 23%
    19:00 +33°C° 0 mm 4 m/s 755 mmHg 28%
    20:00 +30°C° 0 mm 3 m/s 755 mmHg 33%
    21:00 +28°C° 0 mm 2 m/s 755 mmHg 38%
    22:00 +27°C° 0 mm 2 m/s 755 mmHg 42%
    23:00 +26°C° 0 mm 2 m/s 756 mmHg 45%

    Après-demain, 23 Août, Vendredi

    Heure Température Précipitation Vent Pression Humidité
    00:00 +26°C° 0 mm 1 m/s 756 mmHg 48%
    01:00 +26°C° 0 mm 1 m/s 756 mmHg 47%
    02:00 +26°C° 0 mm 2 m/s 756 mmHg 47%
    03:00 +26°C° 0 mm 2 m/s 756 mmHg 46%
    04:00 +26°C° 0 mm 1 m/s 756 mmHg 44%
    05:00 +27°C° 0 mm 1 m/s 756 mmHg 43%
    06:00 +27°C° 0 mm 1 m/s 756 mmHg 42%
    07:00 +30°C° 0 mm 1 m/s 756 mmHg 36%
    08:00 +32°C° 0 mm 1 m/s 756 mmHg 30%
    09:00 +35°C° 0 mm 1 m/s 756 mmHg 24%
    10:00 +38°C° 0 mm 2 m/s 756 mmHg 22%
    11:00 +39°C° 0 mm 3 m/s 756 mmHg 19%
    12:00 +42°C° 0 mm 4 m/s 755 mmHg 16%
    13:00 +42°C° 0 mm 5 m/s 755 mmHg 16%
    14:00 +42°C° 0 mm 6 m/s 755 mmHg 16%
    15:00 +43°C° 0 mm 7 m/s 754 mmHg 17%
    16:00 +40°C° 0 mm 7 m/s 754 mmHg 21%
    17:00 +38°C° 0 mm 6 m/s 754 mmHg 25%
    18:00 +35°C° 0 mm 6 m/s 754 mmHg 29%
    19:00 +33°C° 0 mm 5 m/s 755 mmHg 36%
    20:00 +32°C° 0 mm 4 m/s 755 mmHg 44%
    21:00 +29°C° 0 mm 3 m/s 756 mmHg 52%
    22:00 +29°C° 0 mm 4 m/s 755 mmHg 52%
    23:00 +29°C° 0 mm 4 m/s 755 mmHg 52%

    24 Août, Samedi

    Heure Température Précipitation Vent Pression Humidité
    00:00 +29°C° 0 mm 5 m/s 755 mmHg 52%
    01:00 +29°C° 0 mm 4 m/s 755 mmHg 51%
    02:00 +28°C° 0 mm 4 m/s 755 mmHg 51%
    03:00 +28°C° 0 mm 3 m/s 755 mmHg 50%
    04:00 +28°C° 0 mm 3 m/s 755 mmHg 49%
    05:00 +28°C° 0 mm 2 m/s 755 mmHg 49%
    06:00 +28°C° 0 mm 2 m/s 755 mmHg 48%
    07:00 +31°C° 0 mm 2 m/s 756 mmHg 41%
    08:00 +34°C° 0 mm 3 m/s 756 mmHg 35%
    09:00 +37°C° 0 mm 3 m/s 756 mmHg 28%
    10:00 +38°C° 0 mm 4 m/s 756 mmHg 24%
    11:00 +41°C° 0 mm 5 m/s 756 mmHg 20%
    12:00 +44°C° 0 mm 6 m/s 755 mmHg 16%
    13:00 +43°C° 0 mm 7 m/s 755 mmHg 18%
    14:00 +43°C° 0 mm 8 m/s 755 mmHg 19%
    15:00 +42°C° 0 mm 9 m/s 755 mmHg 20%
    16:00 +39°C° 0 mm 7 m/s 755 mmHg 26%
    17:00 +36°C° 0 mm 6 m/s 755 mmHg 31%
    18:00 +34°C° 0 mm 5 m/s 755 mmHg 37%
    19:00 +33°C° 0 mm 4 m/s 755 mmHg 41%
    20:00 +30°C° 0 mm 4 m/s 756 mmHg 46%
    21:00 +29°C° 0 mm 3 m/s 756 mmHg 50%
    22:00 +28°C° 0 mm 3 m/s 756 mmHg 48%
    23:00 +28°C° 0 mm 3 m/s 756 mmHg 45%

    25 Août, Dimanche

    Heure Température Précipitation Vent Pression Humidité
    00:00 +28°C° 0 mm 3 m/s 756 mmHg 43%
    01:00 +28°C° 0 mm 3 m/s 756 mmHg 42%
    02:00 +27°C° 0 mm 3 m/s 756 mmHg 41%
    03:00 +27°C° 0 mm 3 m/s 756 mmHg 40%
    04:00 +27°C° 0 mm 3 m/s 756 mmHg 42%
    05:00 +27°C° 0 mm 2 m/s 756 mmHg 45%
    06:00 +26°C° 0 mm 2 m/s 757 mmHg 47%
    07:00 +29°C° 0 mm 2 m/s 757 mmHg 41%
    08:00 +32°C° 0 mm 2 m/s 757 mmHg 34%
    09:00 +35°C° 0 mm 2 m/s 757 mmHg 27%
    10:00 +37°C° 0 mm 3 m/s 757 mmHg 23%
    11:00 +38°C° 0 mm 4 m/s 756 mmHg 19%
    12:00 +41°C° 0 mm 6 m/s 756 mmHg 14%
    13:00 +41°C° 0 mm 6 m/s 756 mmHg 14%
    14:00 +40°C° 0 mm 7 m/s 756 mmHg 14%
    15:00 +40°C° 0 mm 7 m/s 755 mmHg 14%
    16:00 +38°C° 0 mm 7 m/s 755 mmHg 16%
    17:00 +35°C° 0 mm 6 m/s 755 mmHg 19%
    18:00 +33°C° 0 mm 6 m/s 755 mmHg 21%
    19:00 +30°C° 0 mm 5 m/s 755 mmHg 28%
    20:00 +29°C° 0 mm 4 m/s 756 mmHg 35%
    21:00 +27°C° 0 mm 3 m/s 756 mmHg 42%
    22:00 +27°C° 0 mm 2 m/s 756 mmHg 42%
    23:00 +26°C° 0 mm 2 m/s 756 mmHg 42%

    26 Août, Lundi

    Heure Température Précipitation Vent Pression Humidité
    00:00 +26°C° 0 mm 2 m/s 756 mmHg 42%
    01:00 +25°C° 0 mm 2 m/s 756 mmHg 42%
    02:00 +25°C° 0 mm 1 m/s 756 mmHg 42%
    03:00 +24°C° 0 mm 1 m/s 756 mmHg 42%
    04:00 +24°C° 0.1 mm 1 m/s 756 mmHg 41%
    05:00 +25°C° 0.1 mm 2 m/s 756 mmHg 40%
    06:00 +25°C° 0.1 mm 2 m/s 756 mmHg 40%
    07:00 +27°C° 0.1 mm 2 m/s 756 mmHg 34%
    08:00 +29°C° 0.1 mm 2 m/s 756 mmHg 29%
    09:00 +32°C° 0.1 mm 2 m/s 756 mmHg 24%
    10:00 +35°C° 0 mm 2 m/s 756 mmHg 20%
    11:00 +35°C° 0 mm 1 m/s 756 mmHg 17%
    12:00 +37°C° 0 mm 1 m/s 756 mmHg 13%
    13:00 +38°C° 0 mm 3 m/s 756 mmHg 14%
    14:00 +40°C° 0 mm 5 m/s 756 mmHg 14%
    15:00 +40°C° 0 mm 7 m/s 756 mmHg 15%
    16:00 +38°C° 0 mm 8 m/s 756 mmHg 18%
    17:00 +35°C° 0 mm 8 m/s 756 mmHg 21%
    18:00 +34°C° 0 mm 9 m/s 756 mmHg 24%
    19:00 +33°C° 0 mm 8 m/s 757 mmHg 25%
    20:00 +32°C° 0 mm 8 m/s 757 mmHg 26%
    21:00 +30°C° 0 mm 7 m/s 758 mmHg 28%
    22:00 +30°C° 0 mm 7 m/s 758 mmHg 28%
    23:00 +29°C° 0 mm 6 m/s 758 mmHg 29%
    Voir plus